User: anonymous   Login
Location: Aalen
(48.8330°N, 10.1000°E)
Time: 23:11:50
(UTC+02:00)
Language:

XW-2C - Orbit

View from above orbital plane
View from above orbital plane
View from above satellite
View from above satellite

Ground track
Ground track

The orbit data is extracted from the following two-line orbital elements,

1 40906U 15049H   21262.57575044  .00000998  00000-0  53889-4 0  9991
2 40906  97.4891 263.7792 0013466 215.5035 293.1528 15.16959605331831
Epoch (UTC): 19 September 2021 13:49:04
Eccentricity: 0.0013466
inclination: 97.4891°
perigee height: 506 km
apogee height: 524 km
right ascension of ascending node: 263.7792°
argument of perigee: 215.5035°
revolutions per day: 15.16959605
mean anomaly at epoch: 293.1528°
orbit number at epoch: 33183

The dashed part of the orbit path shows where the satellite is in the earth's shadow,  

DLR